Main page
METAR-TAF:

METAR-TAF

Airports :

Qeshm International Airport

Qeshm, Iran

latitude: 26-45-18N, longitude: 055-54-08E, elevation: 12 m

Current weather observation

The report was made 36 minutes ago, at 22:00 UTC
Wind 6 kt from the East/Southeast
Temperature 31°C
Humidity 66%
Pressure 1006 hPa
Visibility: 4000 m
haze

METAR: OIKQ 212200Z 12006KT 4000 HZ NSC 31/24 Q1006

Time: 02:06 (22:36 UTC)


TAF: missing

Weather observations and forecasts of more than 4000 airports (METAR and TAF reports).

The available stations are represented by yellow and red dots on the map.

Hover mouse over dot to see the name of the station.

Then click to see weather observations and forecasts.

To change the map : click on the green buttons with a black cross to zoom in, on the green button with a dash to zoom out, or on the green arrows for adjacent maps.


METAR-TAF: